This demonstration page uses our WeatherBlox Daily Observations layout. Learn more.

Left ArrowRight Arrow

40.92945, -100.16068

Hourly Observations for February 2, 2022

Temp ( °F °C ) Dew Point ( °F °C ) Humidity (%) Winds ( mph kmh ) Pressure ( in mb ) Visibility ( mi km ) Precip ( " mm )
12:15 am 00:15 Cloudy 17 -8.2 -4 -20 38 38 NE 14 22 30.43 1031 10 16 0.00 0.00
12:35 am 00:35 Cloudy 17 -8.5 -4 -20.1 39 39 NE 17 28 30.44 1031 10 16 0.00 0.00
12:55 am 00:55 Cloudy 16 -8.8 -5 -20.4 39 39 NE 16 26 30.45 1031 10 16 0.00 0.00
1:15 am 01:15 Cloudy 16 -9.1 -5 -20.4 40 40 NNE 15 24 30.45 1031 10 16 0.00 0.00
1:35 am 01:35 Cloudy 15 -9.3 -5 -20.5 40 40 NNE 16 26 30.45 1031 10 16 0.00 0.00
1:55 am 01:55 Cloudy 15 -9.5 -5 -20.3 41 41 NNE 15 24 30.46 1031 10 16 0.00 0.00
2:15 am 02:15 Cloudy 15 -9.6 -5 -20.6 41 41 NNE 15 24 30.46 1031 10 16 0.00 0.00
2:35 am 02:35 Cloudy 15 -9.7 -5 -20.5 41 41 NNE 13 20 30.47 1032 10 16 0.00 0.00
2:55 am 02:55 Cloudy 14 -9.8 -5 -20.3 42 42 NNE 9 15 30.47 1032 10 16 0.00 0.00
3:15 am 03:15 Cloudy 14 -10 -4 -20.1 44 44 NNE 9 15 30.47 1032 10 16 0.00 0.00
3:35 am 03:35 Cloudy 14 -10.1 -4 -20 45 45 NNE 13 20 30.48 1032 10 16 0.00 0.00
3:55 am 03:55 Cloudy 14 -10.1 -4 -20 45 45 NNE 15 24 30.47 1032 10 16 0.00 0.00
4:15 am 04:15 Cloudy 13 -10.3 -4 -20.1 45 45 NNE 15 24 30.48 1032 10 16 0.00 0.00
4:35 am 04:35 Cloudy 13 -10.5 -4 -20.1 46 46 NNE 14 22 30.48 1032 10 16 0.00 0.00
4:55 am 04:55 Cloudy 13 -10.7 -4 -20 47 47 NNE 13 20 30.49 1032 10 16 0.00 0.00
5:15 am 05:15 Cloudy 12 -11 -4 -20 48 48 NNE 14 22 30.50 1033 10 16 0.00 0.00
5:35 am 05:35 Cloudy 12 -11.2 -4 -20 49 49 NNE 13 20 30.52 1033 10 16 0.00 0.00
5:55 am 05:55 Cloudy 11 -11.5 -4 -20 50 50 NNE 12 19 30.53 1034 10 16 0.00 0.00
6:15 am 06:15 Cloudy 11 -11.6 -4 -20 50 50 NNE 9 15 30.54 1034 10 16 0.00 0.00
6:35 am 06:35 Cloudy 10 -12 -4 -20.1 51 51 NNE 15 24 30.55 1035 10 16 0.00 0.00
6:55 am 06:55 Cloudy 10 -12.2 -4 -20.1 52 52 NNE 9 15 30.57 1035 10 16 0.00 0.00
7:15 am 07:15 Cloudy 10 -12.5 -5 -20.5 52 52 N 12 19 30.57 1035 10 16 0.00 0.00
7:35 am 07:35 Cloudy 9 -12.6 -5 -20.6 52 52 NNE 14 22 30.58 1036 10 16 0.00 0.00
7:55 am 07:55 Cloudy 9 -12.7 -6 -21 50 50 N 14 22 30.58 1036 10 16 0.00 0.00
8:15 am 08:15 Cloudy 9 -13 -6 -21 51 51 N 16 26 30.60 1036 10 16 0.00 0.00
8:35 am 08:35 Cloudy 8 -13.1 -9 -22.5 45 45 N 14 22 30.61 1036 10 16 0.00 0.00
8:55 am 08:55 Cloudy 8 -13.2 -9 -22.6 45 45 NNE 15 24 30.62 1037 10 16 0.00 0.00
9:15 am 09:15 Cloudy 9 -13 -7 -21.9 48 48 N 15 24 30.63 1037 10 16 0.00 0.00
9:35 am 09:35 Cloudy 8 -13.1 -9 -23 44 44 N 17 28 30.64 1037 10 16 0.00 0.00
9:55 am 09:55 Cloudy 9 -12.7 -10 -23.2 41 41 NNE 12 19 30.64 1038 10 16 0.00 0.00
10:15 am 10:15 Cloudy 9 -12.6 -10 -23.2 41 41 N 15 24 30.65 1038 10 16 0.00 0.00
10:35 am 10:35 Cloudy 10 -12.4 -10 -23.3 40 40 N 15 24 30.65 1038 10 16 0.00 0.00
10:55 am 10:55 Cloudy 10 -12.2 -10 -23.6 38 38 N 14 22 30.66 1038 10 16 0.00 0.00
11:15 am 11:15 Cloudy 10 -12 -11 -23.8 37 37 NNE 17 28 30.66 1038 10 16 0.00 0.00
11:35 am 11:35 Cloudy 11 -11.5 -12 -24.6 33 33 NNE 17 28 30.65 1038 10 16 0.00 0.00
11:55 am 11:55 Cloudy 12 -11 -12 -24.4 32 32 NNE 17 28 30.65 1038 10 16 0.00 0.00
12:15 pm 12:15 Mostly Cloudy 13 -10.7 -13 -24.8 31 31 NNE 16 26 30.63 1037 10 16 0.00 0.00
12:35 pm 12:35 Mostly Cloudy 13 -10.5 -14 -25.3 29 29 NNE 17 28 30.63 1037 10 16 0.00 0.00
12:55 pm 12:55 Cloudy 13 -10.3 -14 -25.4 28 28 NE 17 28 30.62 1037 10 16 0.00 0.00
1:15 pm 13:15 Mostly Cloudy 14 -10 -13 -25.1 28 28 NNE 15 24 30.61 1037 10 16 0.00 0.00
1:35 pm 13:35 Cloudy 14 -9.9 -13 -24.9 28 28 NNE 16 26 30.60 1036 10 16 0.00 0.00
1:55 pm 13:55 Cloudy 15 -9.7 -13 -24.9 28 28 NNE 15 24 30.59 1036 10 16 0.00 0.00
2:15 pm 14:15 Cloudy 15 -9.5 -13 -24.8 28 28 NNE 14 22 30.59 1036 10 16 0.00 0.00
2:35 pm 14:35 Cloudy 15 -9.5 -13 -24.8 28 28 NNE 14 22 30.59 1036 10 16 0.00 0.00
2:55 pm 14:55 Cloudy 15 -9.5 -13 -25.1 27 27 NE 15 24 30.59 1036 10 16 0.00 0.00
3:15 pm 15:15 Cloudy 15 -9.5 -14 -25.4 26 26 NE 16 26 30.59 1036 10 16 0.00 0.00
3:35 pm 15:35 Cloudy 15 -9.3 -14 -25.3 26 26 NE 14 22 30.59 1036 10 16 0.00 0.00
3:55 pm 15:55 Cloudy 15 -9.4 -14 -25.3 26 26 NE 14 22 30.60 1036 10 16 0.00 0.00
4:15 pm 16:15 Cloudy 15 -9.2 -13 -24.9 27 27 NE 13 20 30.59 1036 10 16 0.00 0.00
4:35 pm 16:35 Cloudy 15 -9.6 -14 -25.7 26 26 NNE 16 26 30.60 1036 10 16 0.00 0.00
4:55 pm 16:55 Cloudy 14 -9.9 -14 -25.3 27 27 NNE 16 26 30.60 1036 10 16 0.00 0.00
5:15 pm 17:15 Cloudy 14 -10 -13 -25.2 28 28 NE 16 26 30.60 1036 10 16 0.00 0.00
5:35 pm 17:35 Cloudy 14 -10.2 -13 -24.8 29 29 NE 14 22 30.61 1036 10 16 0.00 0.00
5:55 pm 17:55 Cloudy 13 -10.4 -13 -24.8 30 30 NNE 14 22 30.62 1037 10 16 0.00 0.00
6:15 pm 18:15 Cloudy 13 -10.5 -13 -25 30 30 NE 14 22 30.62 1037 10 16 0.00 0.00
6:35 pm 18:35 Cloudy 13 -10.7 -12 -24.6 31 31 NNE 15 24 30.63 1037 10 16 0.00 0.00
6:55 pm 18:55 Cloudy 12 -11 -12 -24.7 32 32 NE 15 24 30.63 1037 10 16 0.00 0.00
7:15 pm 19:15 Cloudy 11 -11.5 -12 -24.3 34 34 NE 9 15 30.65 1038 10 16 0.00 0.00
7:35 pm 19:35 Cloudy 11 -11.7 -12 -24.3 35 35 NE 12 19 30.65 1038 10 16 0.00 0.00
7:55 pm 19:55 Partly Cloudy 10 -12.1 -11 -24 37 37 NNE 9 15 30.66 1038 10 16 0.00 0.00
8:15 pm 20:15 Clear 10 -12.5 -11 -24.1 38 38 NNE 9 15 30.68 1039 10 16 0.00 0.00
8:35 pm 20:35 Partly Cloudy 9 -12.7 -11 -24 39 39 NE 9 15 30.68 1039 10 16 0.00 0.00
8:55 pm 20:55 Cloudy 9 -12.7 -10 -23.6 40 40 NE 10 17 30.68 1039 10 16 0.00 0.00
9:15 pm 21:15 Cloudy 9 -13 -10 -23.5 41 41 NE 9 15 30.70 1039 10 16 0.00 0.00
9:35 pm 21:35 Cloudy 8 -13.2 -10 -23.5 42 42 NE 9 15 30.70 1040 10 16 0.00 0.00
9:55 pm 21:55 Cloudy 8 -13.2 -10 -23.2 43 43 NE 8 13 30.70 1040 10 16 0.00 0.00
10:15 pm 22:15 Cloudy 8 -13.3 -10 -23.1 44 44 NE 10 17 30.70 1040 10 16 0.00 0.00
10:35 pm 22:35 Cloudy 8 -13.5 -9 -23 45 45 NE 10 17 30.70 1040 10 16 0.00 0.00
10:55 pm 22:55 Cloudy 7 -13.7 -9 -23 46 46 NE 10 17 30.70 1040 10 16 0.00 0.00
11:15 pm 23:15 Cloudy 7 -14 -9 -22.7 48 48 NE 9 15 30.71 1040 10 16 0.00 0.00
11:35 pm 23:35 Cloudy 7 -14 -9 -22.6 48 48 NE 8 13 30.72 1040 10 16 0.00 0.00
11:55 pm 23:55 Cloudy 7 -14 -9 -22.6 48 48 NE 9 15 30.72 1040 10 16 0.00 0.00

Powered by AerisWeather